Volver al catálogo

NOAA 16 DEB

LostSSO
NORAD 42370·DEBRIS·🇺🇸 United States

Lanzado Sep 21, 2000 desde Vandenberg Space Force Base

Loading…

Próximos Pases (próximas 24 horas)

TLE

ObsoletoSource: Space-Track

Época: Apr 12, 2021, 21:52 UTC

1 42370U 00055RN  21102.91145775  .00001669  00000-0  11274-2 0  9990
2 42370  98.9659 141.5894 0104579 319.6632  39.6808 13.99198564265655

Sigue NOAA 16 DEB en tiempo real con AllMySat

Download on the App Store